FW3092 Weather Reports


Display with metric or nautical units.
time (UTC)temp
F
wind
direction
speed
MPH
gust
MPH
rain 1hr
in
rain 24hr
in
rain mn
in
humidity
%
barometer
mb
20260504024548 49 275 5.0 11.0 0.00 0.00 0.00 56 953.7
20260504023047 49 297 4.0 10.0 0.00 0.00 0.00 56 953.8
20260504021545 50 272 5.0 14.0 0.00 0.00 0.00 56 954.0
20260504020045 50 286 7.0 18.0 0.00 0.00 0.00 55 954.0
20260504014547 49 340 8.0 18.0 0.00 0.00 0.00 56 953.7
20260504013049 49 51 3.0 13.0 0.00 0.00 0.00 57 953.7
20260504011548 49 257 7.0 12.0 0.00 0.00 0.00 57 953.8
20260504010053 49 350 2.0 9.0 0.00 0.00 0.00 57 953.6
20260504004542 50 286 3.0 10.0 0.00 0.00 0.00 55 953.7
20260504003043 50 269 4.0 17.0 0.00 0.00 0.00 54 953.5
20260504001600 50 287 4.0 9.0 0.00 0.00 0.00 53 953.2
20260504000043 50 243 3.0 5.0 0.00 0.00 0.00 52 953.0
20260503234540 51 243 2.0 5.0 0.00 0.00 0.00 51 952.9
20260503233040 52 240 4.0 10.0 0.00 0.00 0.00 49 952.7
20260503231542 52 260 7.0 11.0 0.00 0.00 0.00 48 952.8
20260503230039 52 281 5.0 11.0 0.00 0.00 0.00 49 952.9
20260503224538 52 283 3.0 13.0 0.00 0.00 0.00 49 952.8
20260503223041 53 303 3.0 15.0 0.00 0.00 0.00 48 952.7
20260503221542 53 283 4.0 10.0 0.00 0.00 0.00 47 952.9
20260503220047 53 263 3.0 17.0 0.00 0.00 0.00 47 953.1
20260503214534 53 263 8.0 13.0 0.00 0.00 0.00 48 952.9
20260503213038 52 309 6.0 13.0 0.00 0.00 0.00 50 952.9
20260503211533 51 251 7.0 15.0 0.00 0.00 0.00 53 953.2
20260503210031 50 332 7.0 21.0 0.00 0.00 0.00 51 953.0
20260503204530 51 276 4.0 13.0 0.00 0.00 0.00 49 953.0
20260503203034 52 347 9.0 19.0 0.00 0.00 0.00 47 952.8
20260503201531 52 271 7.0 12.0 0.00 0.00 0.00 46 952.9
20260503200031 51 280 7.0 16.0 0.00 0.00 0.00 45 953.0
20260503194530 51 342 5.0 19.0 0.00 0.00 0.00 46 953.1
20260503193024 51 355 6.0 11.0 0.00 0.00 0.00 44 953.4
20260503191526 51 287 7.0 14.0 0.00 0.00 0.00 43 953.4
20260503190024 52 247 7.0 14.0 0.00 0.00 0.00 43 953.5
20260503184526 52 281 6.0 14.0 0.00 0.00 0.00 41 953.6
20260503183027 52 283 6.0 14.0 0.00 0.00 0.00 42 953.9
20260503181527 51 321 7.0 18.0 0.00 0.00 0.00 41 953.9
20260503180016 52 292 7.0 13.0 0.00 0.00 0.00 44 953.9
20260503174513 51 265 4.0 13.0 0.00 0.00 0.00 42 954.3
20260503173036 49 287 4.0 15.0 0.00 0.00 0.00 44 954.4
20260503171512 50 257 6.0 18.0 0.00 0.00 0.00 42 954.6
20260503100105 35 324 3.0 6.0 0.00 0.00 0.00 83 954.8
20260503081543 35 287 2.0 9.0 0.00 0.00 0.00 82 954.6
20260503071538 35 283 2.0 6.0 0.00 0.00 0.00 83 954.6
20260503054530 35 274 1.0 4.0 0.00 0.00 0.00 83 955.0
20260503053037 35 34 2.0 6.0 0.00 0.00 0.00 83 955.2
20260503051527 35 280 3.0 8.0 0.00 0.00 0.00 82 955.3
20260503050024 35 331 3.0 8.0 0.00 0.00 0.00 82 955.7
20260503044556 35 286 2.0 4.0 0.00 0.01 0.00 81 955.7
20260503043020 35 280 1.0 6.0 0.00 0.01 0.00 80 955.9
20260503041518 35 286 0.0 4.0 0.00 0.01 0.00 79 956.0
20260503040017 35 320 0.0 4.0 0.00 0.03 0.01 79 955.9
20260503034515 35 309 1.0 6.0 0.00 0.03 0.01 79 955.8
20260503033014 36 286 2.0 6.0 0.00 0.03 0.01 78 956.0
20260503031512 36 319 1.0 4.0 0.00 0.03 0.01 78 956.0
20260503030013 36 321 2.0 9.0 0.00 0.06 0.01 77 955.9